Regional Weather Roundup
Issued by NWS

Home | Current Version | Previous Version | Graphics & Text | Print | Product List | Glossary Off
Versions: 1 2 3 4 5 6 7 8 9 10 11 12 13 14 15 16 17 18 19 20 21 22 23 24 25 26 27 28 29 30 31 32 33 34 35 36 37 38 39 40 41 42 43 44 45 46 47 48 49 50

000
ASUS43 KMKX 251210
RWRWI

WISCONSIN REGIONAL WEATHER ROUNDUP
NATIONAL WEATHER SERVICE MILWAUKEE/SULLIVAN WI
700 AM CDT FRI JUL 25 2014

NOTE: "FAIR" INDICATES FEW OR NO CLOUDS BELOW 12,000 FEET WITH NO
SIGNIFICANT WEATHER AND/OR OBSTRUCTIONS TO VISIBILITY.

WIZ001-002-006>008-014>016-023>028-251300-
NORTHWEST WISCONSIN

CITY           SKY/WX    TMP DP  RH WIND       PRES   REMARKS
SUPERIOR ARPT  CLOUDY    57  55  94 NE8       29.84F
6HR MIN TEMP:  56; 6HR MAX TEMP:  59;

ASHLAND        CLOUDY    63  60  90 MISG      29.86F
6HR MIN TEMP:  58; 6HR MAX TEMP:  63; 6HR PCP:  0.03;

HAYWARD        CLOUDY    64  60  87 S8        29.88S
6HR MIN TEMP:  64; 6HR MAX TEMP:  67; 6HR PCP: TRACE;

SIREN          LGT RAIN  66  60  80 SE3       29.84F
6HR MIN TEMP:  65; 6HR MAX TEMP:  67;

RICE LAKE      CLOUDY    65  58  78 SE13      29.86F
6HR MIN TEMP:  62; 6HR MAX TEMP:  65;

LADYSMITH      CLOUDY    64  60  86 SE7       29.93F
6HR MIN TEMP:  63; 6HR MAX TEMP:  66;

EAU CLAIRE     CLOUDY    66  59  78 SE7       29.86F
6HR MIN TEMP:  66; 6HR MAX TEMP:  67;

MENOMONIE      CLOUDY    64  61  88 SE9       29.81F
6HR MIN TEMP:  64; 6HR MAX TEMP:  67; 6HR PCP:  0.01;

NEW RICHMOND   HVY RAIN  64  62  93 S15       29.82S
6HR MIN TEMP:  64; 6HR MAX TEMP:  67; 6HR PCP:  0.07;

OSCEOLA        RAIN      64  64  97 S10       29.84R
6HR MIN TEMP:  64; 6HR MAX TEMP:  69; 6HR PCP:  0.09;

$$

WIZ003>005-009-010-017-018-251300-
NORTH CENTRAL WISCONSIN

CITY           SKY/WX    TMP DP  RH WIND       PRES   REMARKS
WOODRUFF       CLOUDY    62  59  89 CALM      29.96R
6HR MIN TEMP:  59; 6HR MAX TEMP:  63;

RHINELANDER    LGT RAIN  61  58  90 SW8       29.97F
6HR MIN TEMP:  58; 6HR MAX TEMP:  63; 6HR PCP: TRACE;

EAGLE RIVER    PTSUNNY   60  58  92 CALM      29.96R
6HR MIN TEMP:  55; 6HR MAX TEMP:  61;

LAND O LAKES   PTSUNNY   60  56  88 S3        29.96R
6HR MIN TEMP:  54; 6HR MAX TEMP:  60;

PHILLIPS       CLOUDY    62  59  90 S9        29.93F
6HR MIN TEMP:  61; 6HR MAX TEMP:  64;

TOMAHAWK       CLOUDY    59  57  94 CALM      29.97S
6HR MIN TEMP:  56; 6HR MAX TEMP:  60; 6HR PCP:  0.01;

MEDFORD        CLOUDY    62  59  90 S8        29.96S
MERRILL        LGT RAIN  61  60  96 S6        29.98S
6HR MIN TEMP:  56; 6HR MAX TEMP:  62;

$$

WIZ029-030-035-036-043>047-251300-
CENTRAL WISCONSIN

CITY           SKY/WX    TMP DP  RH WIND       PRES   REMARKS
WAUSAU         LGT RAIN  62  60  93 VRB3      29.99R
6HR MIN TEMP:  62; 6HR MAX TEMP:  66; 6HR PCP:  0.05;

MOSINEE        CLOUDY    63  59  88 E8        29.98F
MARSHFIELD     CLOUDY    62  58  86 S7        29.97R
6HR MIN TEMP:  60; 6HR MAX TEMP:  64; 6HR PCP: TRACE;

STEVENS POINT  CLOUDY    59  56  90 S3        30.02R
6HR MIN TEMP:  59; 6HR MAX TEMP:  64; 6HR PCP:  0.01;

WAUPACA        CLOUDY    63  58  85 S3        30.00S
6HR MIN TEMP:  60; 6HR MAX TEMP:  64;

WAUTOMA        CLOUDY    60  58  93 SW6       30.01F
6HR MIN TEMP:  58; 6HR MAX TEMP:  62; 6HR PCP:  0.03;

WISC RAPIDS    CLOUDY    62  58  86 S9        30.00R
6HR MIN TEMP:  61; 6HR MAX TEMP:  66; 6HR PCP: TRACE;

CAMP DOUGLAS   CLOUDY    63  60  91 S12       29.97F
6HR MIN TEMP:  61; 6HR MAX TEMP:  64; 6HR PCP: TRACE;

$$

WIZ011>013-019>022-031-037>040-048>050-251300-
NORTHEAST WISCONSIN

CITY           SKY/WX    TMP DP  RH WIND       PRES   REMARKS
ANTIGO         LGT RAIN  59  58  96 SW8       29.98F
6HR MIN TEMP:  56; 6HR MAX TEMP:  59; 6HR PCP:  0.01;

STURGEON BAY   CLOUDY    63  50  63 SW10      30.00R
6HR MIN TEMP:  59; 6HR MAX TEMP:  63;

GREEN BAY      MOSUNNY   64  54  69 SW7       30.01R
6HR MIN TEMP:  60; 6HR MAX TEMP:  64;

MANITOWOC      PTSUNNY   64  50  60 W12       30.02R
6HR MIN TEMP:  61; 6HR MAX TEMP:  64; 6HR PCP: TRACE;

APPLETON       PTSUNNY   63  52  67 SW10      30.02R
CLINTONVILLE   PTSUNNY   63  54  72 CALM      30.01R
OSHKOSH        CLOUDY    62  53  72 SW10      30.01S
6HR MIN TEMP:  59; 6HR MAX TEMP:  63; 6HR PCP: TRACE;

$$

WIZ032>034-041-042-053>061-251300-
SOUTHWEST WISCONSIN

CITY           SKY/WX    TMP DP  RH WIND       PRES   REMARKS
LA CROSSE      HVY RAIN  64  61  90 S17G28    29.96R FOG
6HR MIN TEMP:  64; 6HR MAX TEMP:  70; 6HR PCP:  0.32;

SPARTA         CLOUDY    64  56  78 SW7       29.99S
6HR MIN TEMP:  56; 6HR MAX TEMP:  65; 6HR PCP:  0.06;

VIROQUA        CLOUDY    63  57  81 SW9G16    30.03R
6HR MIN TEMP:  61; 6HR MAX TEMP:  64;

BOSCOBEL       CLOUDY    65  57  75 SW9       30.01R
6HR MIN TEMP:  58; 6HR MAX TEMP:  65; 6HR PCP:  0.03;

PRAIRIE DU CHI CLOUDY    66  56  70 SE8       30.01S
6HR MIN TEMP:  62; 6HR MAX TEMP:  67;

PLATTEVILLE    PTSUNNY   61  58  91 S18       30.01F
6HR MIN TEMP:  60; 6HR MAX TEMP:  62; 6HR PCP:  0.06;

$$

WIZ056-057-062-063-064-067-068-251300-
SOUTH CENTRAL WISCONSIN

CITY           SKY/WX    TMP DP  RH WIND       PRES   REMARKS
BARABOO/DELLS  CLOUDY    63  54  72 S9        30.03R
6HR MIN TEMP:  59; 6HR MAX TEMP:  63;

LONE ROCK      CLOUDY    67  57  70 CALM      30.01R
6HR MIN TEMP:  61; 6HR MAX TEMP:  68; 6HR PCP:  0.02;

WATERTOWN      CLOUDY    60  52  73 S7        30.04F
6HR MIN TEMP:  54; 6HR MAX TEMP:  60;

MADISON        CLOUDY    63  54  72 SW6       30.05S
6HR MIN TEMP:  63; 6HR MAX TEMP:  65; 6HR PCP:  0.02;

MIDDLETON      FAIR      64  54  69 SW5       30.04R
6HR MIN TEMP:  62; 6HR MAX TEMP:  65;

MONROE         RAIN      59  55  88 S16       30.03F
JANESVILLE     DRIZZLE   61  52  72 SW7       30.06F
$$

WIZ051-052-058>065-066-070>072-251300-
SOUTHEAST WISCONSIN

CITY           SKY/WX    TMP DP  RH WIND       PRES   REMARKS
MILWAUKEE      PTSUNNY   62  47  57 SW10      30.07R
6HR MIN TEMP:  59; 6HR MAX TEMP:  62;

WAUKESHA       MOSUNNY   61  48  63 SW8       30.08R
MILWAUKEE/TIMM SUNNY     63  48  59 W9        30.08R
RACINE         PTSUNNY   61  48  62 W9        30.09R
6HR MIN TEMP:  57; 6HR MAX TEMP:  62;

BURLINGTON     PTSUNNY   55  52  89 CALM      30.07S
6HR MIN TEMP:  48; 6HR MAX TEMP:  55;

KENOSHA        PTSUNNY   59  51  75 W7        30.09R
6HR MIN TEMP:  51; 6HR MAX TEMP:  59;

FOND DU LAC    CLOUDY    61  50  67 S9        30.03S
6HR MIN TEMP:  57; 6HR MAX TEMP:  62; 6HR PCP: TRACE;

SHEBOYGAN      PTSUNNY   64  50  60 SW13      30.04R
6HR MIN TEMP:  55; 6HR MAX TEMP:  64;

WEST BEND      CLOUDY    61  46  59 SW7       30.04F
JUNEAU         LGT RAIN  58  48  69 SW3       30.04F
6HR MIN TEMP:  55; 6HR MAX TEMP:  59;

$$

LSZ147-162-251300-
LAKE SUPERIOR

STATION/POSITION TIME  TEMP    WIND        PRES    WAVE
                       AIR SEA DIR/SP/G            HT/PER
                 (UTC) (F)     (DEG/KT/KT) (MB)    (FT/S)
$$

LMZ867-665-643>646-251300-
LAKE MICHIGAN

STATION/POSITION TIME  TEMP    WIND        PRES    WAVE
                       AIR SEA DIR/SP/G            HT/PER
                 (UTC) (F)     (DEG/KT/KT) (MB)    (FT/S)
$$

TC  - TEMPERATURE IN CELSIUS
VSB - VISIBILITY IN STATUTE MILES
WCI - WIND CHILL INDEX
HX  - HEAT INDEX




USA.gov is the U.S. government's official web portal to all federal, state and local government web resources and services.